Regional Weather Roundup
Issued by NWS

Home | Current Version | Previous Version | Text Only | Print | Product List | Glossary Off
Versions: 1 2 3 4 5 6 7 8 9 10 11 12 13 14 15 16 17 18 19 20 21 22 23 24 25 26 27 28 29 30 31 32 33 34 35 36 37 38 39 40 41 42 43 44 45 46 47 48 49 50

000
ASUS44 KMEG 011900
RWRTN
TENNESSEE HOURLY STATE WEATHER ROUNDUP
NATIONAL WEATHER SERVICE MEMPHIS TN
200 PM CDT MON JUN 01 2015

TNZ002-004-019-021-049-052-054-088>092-012000-
WEST TENNESSEE

CITY           SKY/WX    TMP DP  RH WIND       PRES   REMARKS
MEMPHIS INTL   CLOUDY    71  60  68 N8        30.10F
NWS MEMPHIS      N/A     69 N/A N/A MISG        N/A
JACKSON        CLOUDY    69  60  73 N5        30.09F
DYERSBURG      CLOUDY    68  48  49 W7        30.10F
PARIS          CLOUDY    64  59  82 VRB6      30.09F
LEXINGTON      CLOUDY    66  61  82 VRB6      30.08F
$$

TNZ008-025-027-028-033-062-065-066-012000-
NORTH MIDDLE TENNESSEE

CITY           SKY/WX    TMP DP  RH WIND       PRES   REMARKS
NASHVILLE      LGT RAIN  66  64  93 CALM      30.08F
CLARKSVILLE    CLOUDY    66  60  81 N5        30.08S
COOKEVILLE     PTSUNNY   73  68  83 NW3       30.05F
CROSSVILLE     LGT RAIN  71  64  78 VRB3      30.08S
$$

TNZ061-075-076-078-094-096-097-012000-
SOUTH MIDDLE TENNESSEE

CITY           SKY/WX    TMP DP  RH WIND       PRES   REMARKS
FAYETTEVILLE   MOSUNNY  N/A N/A N/A MISG      30.05F
TULLAHOMA      MOSUNNY   75  64  69 S7        30.06F
WINCHESTER     MOSUNNY   79  64  61 W8        30.05F
MCMINNVILLE    PTSUNNY   79  66  65 SW12      30.04F
COLUMBIA       CLOUDY    68  64  88 N3        30.05F
SHELBYVILLE    PTSUNNY   79  70  73 NW12      30.05F
$$

TNZ017-018-042-046-047-012000-
NORTHEAST TENNESSEE

CITY           SKY/WX    TMP DP  RH WIND       PRES   REMARKS
TRI CITIES     PTSUNNY   81  60  48 VRB5      30.03F
ELIZABETHTON   CLEAR     72  64  78 E6        30.05F
$$

TNZ012-013-036-069-073-074-012000-
CENTRAL EAST TENNESSEE

CITY           SKY/WX    TMP DP  RH WIND       PRES   REMARKS
KNOXVILLE      CLOUDY    76  66  71 SW14      30.03F
OAK RIDGE      PTSUNNY   79  64  60 VRB7G16   30.04F
GATLINBURG     CLEAR     75  64  69 E9        30.03S
$$

TNZ083-085-099-012000-
SOUTHEAST TENNESSEE

CITY           SKY/WX    TMP DP  RH WIND       PRES   REMARKS
CHATTANOOGA    PTSUNNY   79  65  62 SE8       30.04F
$$

SKY/WX REPORTED AS FAIR MEANS FEW OR NO CLOUDS BELOW
12 THOUSAND FEET.



USA.gov is the U.S. government's official web portal to all federal, state and local government web resources and services.